#timestamp,LO_Frequency,Hit 
1502215215.6,286047011.3,N
1502215235.4,286047007.8,N
1502215255.2,286047008.5,N
1502215275.1,286047010.3,N
1502215276.0,286047010.3,N
1502215295.8,286047012.2,N
1502215315.6,286047013.5,N
1502215335.5,286047015.5,N
1502215355.3,286047016.9,N
1502215375.1,286047016.9,N
1502215395.9,286047013.3,N
1502215415.7,286047014.0,N
1502215435.5,286047015.3,N
1502215455.4,286047013.0,N
1502215475.2,286047014.8,N
1502215495.0,286047015.0,N
1502215495.9,286047015.0,N
1502215515.8,286047014.0,N
1502215535.6,286047015.0,N
1502215555.4,286047015.2,N
1502215575.2,286047013.1,N
1502215595.1,286047014.8,N
1502215596.0,286047014.8,N
1502215615.8,286047014.8,P
1502215635.7,286047001.7,N
1502215655.5,286047002.7,N
1502215675.3,286047000.9,N
1502215695.1,286047001.1,N
1502215715.9,286046996.7,N
1502215735.7,286046996.8,N
1502215755.5,286046995.0,N
1502215775.4,286046997.1,N
1502215795.2,286046996.6,N
1502215815.0,286047000.0,N
1502215815.9,286047000.0,N
1502215835.8,286047002.4,N
1502215855.6,286046998.4,N
1502215875.4,286047006.0,N
1502215895.3,286047001.4,N
1502215915.1,286047004.4,N
1502215916.0,286047004.4,N
1502215935.8,286046998.6,N
1502215955.7,286046996.7,N
1502215975.5,286046997.2,N
1502215995.3,286046997.7,N
1502216015.2,286046997.3,N
1502216035.9,286046995.0,N
1502216055.7,286046993.9,N
1502216075.6,286046993.9,N
1502216095.4,286046994.0,N
1502216115.2,286046992.4,N
1502216135.0,286046994.4,N
1502216135.9,286046994.4,N
1502216155.8,286046993.2,N
1502216175.6,286046990.5,N
1502216195.4,286046990.6,N
1502216215.3,286046991.6,N
1502216235.1,286046988.8,N
1502216255.8,286046990.3,N
1502216275.7,286046990.6,N
1502216295.5,286046991.1,N
1502216315.3,286046989.8,N
1502216335.2,286046986.9,N
1502216355.9,286046991.3,N
1502216375.7,286046987.0,N
1502216395.6,286046987.0,N
1502216415.4,286046989.4,N
1502216435.2,286046987.3,N
1502216455.0,286046987.6,N
1502216455.9,286046987.6,N
1502216475.8,286046988.4,N
1502216495.6,286046985.2,P
1502216515.5,286046991.0,N
1502216535.3,286046992.0,N
1502216555.1,286046993.3,N
1502216575.8,286046996.3,N
1502216595.7,286046995.0,N
1502216615.5,286046996.0,N
1502216635.3,286046995.9,N
1502216655.2,286046996.6,N
1502216675.9,286046998.1,N
1502216695.7,286046998.6,N
1502216715.6,286046996.7,N
1502216735.4,286046997.8,N
1502216755.2,286046999.5,N
1502216775.1,286046996.6,N
1502216776.0,286046996.6,N
1502216795.8,286046994.9,N
1502216815.6,286046997.6,N
1502216835.4,286046997.2,N
1502216855.3,286046995.3,N
1502216875.1,286046993.3,N
1502216895.8,286046995.7,N
1502216915.7,286046998.0,N
1502216935.5,286046993.3,N
1502216955.3,286046992.4,N
1502216975.2,286046994.8,N
1502216995.9,286046994.1,N
1502217015.7,286046995.0,N
1502217035.6,286046997.1,N
1502217055.4,286046997.4,N
1502217075.2,286047000.5,N
1502217095.0,286047000.4,N
1502217096.0,286047000.4,N
1502217115.8,286047001.6,N
1502217135.6,286047003.2,N
1502217155.4,286047002.1,N
1502217175.3,286046998.4,N
1502217195.1,286047001.6,N
1502217215.8,286047004.7,N
1502217235.7,286047005.2,N
1502217255.5,286047003.6,N
1502217275.3,286047003.2,N
1502217295.2,286047007.1,N
1502217315.9,286047009.1,N
1502217335.7,286047008.8,N
1502217355.6,286047011.1,N
1502217375.4,286047009.3,N
1502217395.2,286047011.2,N
1502217415.1,286047013.8,N
1502217416.0,286047013.8,N
1502217435.8,286047010.6,N
1502217455.6,286047008.1,N
1502217475.5,286047009.0,N
1502217495.3,286047008.3,N
1502217515.1,286047008.6,N
1502217535.8,286047003.3,N
1502217555.7,286047004.4,N
1502217575.5,286047005.6,N
1502217595.3,286047005.7,N
1502217615.2,286047004.8,N
1502217635.9,286047004.2,N
1502217655.7,286047004.3,N
1502217675.6,286047003.8,N
1502217695.4,286047005.0,N
1502217715.2,286047007.3,N
1502217735.1,286047008.0,N
1502217736.0,286047008.0,N
1502217755.8,286047011.7,P
1502217775.6,286047009.2,P
1502217795.5,286047004.5,N
1502217815.3,286047007.3,N
1502217835.1,286047008.1,P
1502217855.9,286047004.3,P
1502217875.7,286047001.6,N
1502217895.5,286047003.9,N
1502217915.4,286047003.3,N
1502217935.2,286047000.5,N
1502217955.0,286047000.3,N
1502217955.9,286047000.3,N
1502217975.8,286047002.8,N
1502217995.6,286047004.2,N
1502218015.4,286047005.6,N
1502218035.3,286047003.0,N
1502218055.1,286047010.8,P
1502218056.0,286047010.8,N
1502218075.8,286047006.8,N
1502218095.7,286047007.6,N
1502218115.5,286047008.6,P
1502218135.3,286047002.2,P
1502218155.2,286047003.5,N
1502218175.9,286047004.2,N
1502218195.7,286047001.3,N
1502218215.6,286047003.0,N
1502218235.4,286047007.2,N
1502218255.2,286047004.9,N
1502218275.1,286047004.0,N
1502218276.0,286047004.0,N
1502218295.8,286047002.9,N
1502218315.6,286047007.4,P
1502218335.5,286046998.5,N
1502218355.3,286046999.4,N
1502218375.1,286046996.6,N
1502218395.9,286046997.4,N
1502218415.7,286046994.9,N
1502218435.5,286046991.9,N
1502218455.3,286046993.0,N
1502218475.2,286046996.3,N
1502218495.0,286046996.8,N
1502218495.9,286046996.8,N
1502218515.7,286046996.8,N
1502218535.6,286046996.7,N
1502218555.4,286046997.4,N
1502218575.2,286046995.1,N
1502218595.1,286046993.7,N
1502218596.0,286046993.7,N
1502218615.8,286046996.0,N
1502218635.6,286046993.9,N
1502218655.5,286046991.9,N
1502218675.3,286046990.9,N
1502218695.1,286046992.4,N
1502218715.9,286046992.2,N
1502218735.7,286046992.9,N
1502218755.5,286046988.8,P
1502218775.4,286046993.4,N
1502218795.2,286046993.9,N
